This is the latest recevied weather packets stored in our database for station/object N7NIP. If no packets are shown the sender has not sent any weather packets the latest 10 day(s).
| Time | Temp. | Humidity | Pressure | Rain* | Wind** | Luminosity | Snow |
|---|---|---|---|---|---|---|---|
| 1777408483 | 11.67° C | 76% | 1037.3 hPa | 0 mm | - | 217 W/m² | - |
| 1777408178 | 11.11° C | 79% | 1037.5 hPa | 0 mm | - | 280 W/m² | - |
| 1777407873 | 11.11° C | 79% | 1037.3 hPa | 0 mm | - | 295 W/m² | - |
| 1777407572 | 11.11° C | 78% | 1037.5 hPa | 0 mm | - | 290 W/m² | - |
| 1777407271 | 11.11° C | 79% | 1037.5 hPa | 0 mm | - | 237 W/m² | - |
| 1777406965 | 11.11° C | 81% | 1037.6 hPa | 0 mm | - | 182 W/m² | - |
| 1777406665 | 11.11° C | 81% | 1037.1 hPa | 0 mm | - | 172 W/m² | - |
| 1777406361 | 11.11° C | 80% | 1037.2 hPa | 0 mm | - | 201 W/m² | - |
| 1777406061 | 11.11° C | 80% | 1037.5 hPa | 0 mm | - | 214 W/m² | - |
| 1777405758 | 11.11° C | 79% | 1037.6 hPa | 0 mm | - | 219 W/m² | - |
| 1777405454 | 11.11° C | 79% | 1037.5 hPa | 0 mm | - | 246 W/m² | - |
| 1777405152 | 11.11° C | 85% | 1037.3 hPa | 0 mm | - | 294 W/m² | - |
| 1777404849 | 10.56° C | 85% | 1037.2 hPa | 0 mm | - | 340 W/m² | - |
| 1777404547 | 10.56° C | 85% | 1037.3 hPa | 0 mm | - | 204 W/m² | - |
| 1777404242 | 10.56° C | 85% | 1037.5 hPa | 0 mm | - | 191 W/m² | - |
| 1777403939 | 10.56° C | 85% | 1037.3 hPa | 0 mm | - | 213 W/m² | - |
| 1777403638 | 10° C | 84% | 1037.2 hPa | 0 mm | - | 235 W/m² | - |
| 1777403333 | 10.56° C | 84% | 1037.5 hPa | 0 mm | - | 204 W/m² | - |
| 1777403033 | 10.56° C | 84% | 1037.3 hPa | 0 mm | - | 152 W/m² | - |
| 1777402728 | 10.56° C | 84% | 1037.2 hPa | 0 mm | - | 125 W/m² | - |
| 1777402424 | 10.56° C | 83% | 1037 hPa | 0 mm | - | 174 W/m² | - |
| 1777402122 | 10.56° C | 87% | 1037.2 hPa | 0 mm | - | 200 W/m² | - |
| 1777401818 | 10.56° C | 85% | 1037.1 hPa | 0 mm | - | 245 W/m² | - |
| 1777401517 | 10.56° C | 88% | 1036.9 hPa | 0 mm | - | 300 W/m² | - |
| 1777401213 | 10.56° C | 87% | 1037 hPa | 0 mm | - | 348 W/m² | - |
* Rain latest hour (hover to see other rain measurements)
** Current wind speed in m/s (hover to see current wind gust speed)